sat.trackr.live / text

‹ back to catalog

OTB-3-GAZELLE

NORAD 54023 · 2022-127A

PAYLOAD ACTIVE UNKNOWN

§ Identity

Operator
Country
US
Launch date
2022-10-07
Launch site
RLLB
Launch vehicle
Mass (kg)
RCS (m²)

External: N2YO · Heavens-Above · Gunter

§ Orbital elements

Epoch: 2026-05-24T23:08:22.695648Z

Period
99.82 min
Inclination
98.3938°
Eccentricity
0.0011847
Mean motion
14.42664706 rev/d
Perigee alt
741.3 km
Apogee alt
758.2 km
Semi-major
7,127.8 km
B*
5.1050e-5
RAAN
137.0233°
Arg perigee
257.8446°
Mean anomaly
102.1417°
Rev number
19,101

§ Raw data

OTB-3-GAZELLE1 54023U 22127A   26144.96415157  .00000126  00000+0  51050-4 0  99962 54023  98.3938 137.0233 0011847 257.8446 102.1417 14.42664706191010

JSON: /api/v1/satellites/54023 · /tle

For live sub-satellite position, see the globe view (requires WebGL).

§ Visibility from observer

Set your observer location to see the next 7 days of passes ≥ 10°. The values pass through the URL so the page stays shareable.

No JS? Fill the form by hand. The geolocation button needs JavaScript.

§ Radio — SatNOGS DB

ModeDescriptionDownlinkUplink
QPSK A-DCS L-band downlink 1.703 GHz
OQPSK A-DCS UHF downlink (inactive) 465.988 MHz

2 transmitters · refreshed weekly from db.satnogs.org